IT9LCP-2 Weather Reports


Display with metric or nautical units.
time (UTC)temp
F
wind
direction
speed
MPH
gust
MPH
rain 1hr
in
rain 24hr
in
rain mn
in
humidity
%
barometer
mb
20260507175149 62 21 2.0 6.0 0.00 0.00 0.00 89 1011.1
20260507173149 62 359 1.0 3.0 0.00 0.00 0.00 87 1010.9
20260507172149 62 338 2.0 5.0 0.00 0.00 0.00 87 1011.1
20260507171148 62 12 2.0 5.0 0.00 0.00 0.00 88 1011.4
20260507164149 62 354 1.0 3.0 0.00 0.00 0.00 88 1011.6
20260507163149 62 15 2.0 5.0 0.00 0.00 0.00 88 1011.6
20260507162148 62 15 2.0 6.0 0.00 0.00 0.00 88 1011.4
20260507161148 62 7 2.0 6.0 0.00 0.00 0.00 88 1011.4
20260507160148 62 5 2.0 5.0 0.00 0.00 0.00 88 1011.5
20260507155149 62 352 1.0 3.0 0.00 0.00 0.00 87 1011.4
20260507154148 62 358 1.0 3.0 0.00 0.00 0.00 87 1011.6
20260507153148 62 5 1.0 3.0 0.00 0.00 0.00 86 1011.9
20260507151149 62 356 1.0 3.0 0.00 0.00 0.00 86 1011.9
20260507150149 62 9 1.0 3.0 0.00 0.00 0.00 85 1011.9
20260507145148 62 354 1.0 5.0 0.00 0.00 0.00 85 1011.7
20260507144148 62 18 2.0 5.0 0.00 0.00 0.00 85 1011.7
20260507142148 62 7 2.0 5.0 0.00 0.00 0.00 85 1012.2
20260507141148 62 18 2.0 5.0 0.00 0.00 0.00 84 1012.2
20260507140151 62 6 2.0 5.0 0.00 0.00 0.00 84 1012.2
20260507135149 63 5 2.0 5.0 0.00 0.00 0.00 83 1012.6
20260507134148 63 350 1.0 6.0 0.00 0.00 0.00 83 1012.9
20260507133149 63 36 2.0 8.0 0.00 0.00 0.00 83 1012.8
20260507132148 63 52 4.0 9.0 0.00 0.00 0.00 82 1012.6
20260507131149 63 49 3.0 8.0 0.00 0.00 0.00 81 1013.0
20260507130148 63 49 2.0 7.0 0.00 0.00 0.00 79 1013.1
20260507125148 63 43 3.0 7.0 0.00 0.00 0.00 80 1013.5
20260507124151 63 47 2.0 5.0 0.00 0.00 0.00 81 1013.5
20260507123148 64 46 2.0 5.0 0.00 0.00 0.00 81 1013.5
20260507121148 63 35 2.0 8.0 0.00 0.00 0.00 80 1013.5
20260507120148 64 43 2.0 6.0 0.00 0.00 0.00 78 1014.0
20260507115148 64 57 3.0 7.0 0.00 0.00 0.00 79 1014.0
20260507113148 65 53 2.0 7.0 0.00 0.00 0.00 75 1014.1
20260507112148 65 44 3.0 6.0 0.00 0.00 0.00 74 1014.3
20260507110148 66 32 3.0 7.0 0.00 0.00 0.00 72 1014.6
20260507104148 65 40 3.0 12.0 0.00 0.00 0.00 72 1014.8
20260507102148 67 60 2.0 7.0 0.00 0.00 0.00 68 1015.0
20260507101148 66 37 3.0 8.0 0.00 0.00 0.00 68 1014.8
20260507100147 65 45 3.0 7.0 0.00 0.00 0.00 69 1015.1
20260507095149 66 35 3.0 8.0 0.00 0.00 0.00 68 1015.2
20260507094148 66 44 2.0 7.0 0.00 0.00 0.00 67 1015.4
20260507093148 66 63 3.0 7.0 0.00 0.00 0.00 66 1015.1
20260507092148 65 39 2.0 7.0 0.00 0.00 0.00 67 1015.2
20260507091148 65 37 3.0 9.0 0.00 0.00 0.00 68 1015.3
20260507090148 65 34 2.0 8.0 0.00 0.00 0.00 68 1015.5
20260507085148 65 45 2.0 8.0 0.00 0.00 0.00 69 1015.2
20260507084148 65 48 2.0 7.0 0.00 0.00 0.00 72 1015.0
20260507083148 64 42 3.0 7.0 0.00 0.00 0.00 75 1015.2
20260507082148 63 37 2.0 7.0 0.00 0.00 0.00 75 1014.9
20260507081147 64 52 1.0 5.0 0.00 0.00 0.00 74 1014.8
20260507080148 63 33 1.0 7.0 0.00 0.00 0.00 75 1014.9
20260507075148 63 32 2.0 6.0 0.00 0.00 0.00 76 1015.0
20260507073148 63 38 2.0 8.0 0.00 0.00 0.00 79 1015.2
20260507072148 63 57 1.0 5.0 0.00 0.00 0.00 78 1015.2
20260507071149 63 48 2.0 6.0 0.00 0.00 0.00 81 1015.3
20260507070147 62 19 2.0 5.0 0.00 0.00 0.00 84 1015.4
20260507065148 62 33 2.0 5.0 0.00 0.00 0.00 87 1015.5
20260507064148 61 5 2.0 5.0 0.00 0.00 0.00 90 1015.2
20260507063147 61 9 2.0 3.0 0.00 0.00 0.00 92 1015.1
20260507062148 60 8 2.0 5.0 0.00 0.00 0.00 93 1015.0
20260507060148 60 348 1.0 3.0 0.00 0.00 0.00 94 1015.1
20260507054148 59 0 2.0 3.0 0.00 0.00 0.00 96 1015.2
20260507053148 59 356 1.0 6.0 0.00 0.00 0.00 97 1015.3
20260507052148 59 4 2.0 3.0 0.00 0.00 0.00 97 1015.2
20260507051148 59 347 1.0 3.0 0.00 0.00 0.00 97 1015.0
20260507050148 59 343 3.0 8.0 0.00 0.00 0.00 97 1014.8
20260507045147 59 58 2.0 5.0 0.00 0.00 0.00 98 1015.0
20260507044148 58 12 3.0 5.0 0.00 0.00 0.00 97 1014.8
20260507043148 58 75 2.0 5.0 0.00 0.00 0.00 97 1014.7
20260507042148 58 86 2.0 5.0 0.00 0.00 0.00 97 1014.7
20260507040147 58 21 1.0 3.0 0.00 0.00 0.00 97 1014.8
20260507035149 58 312 2.0 7.0 0.00 0.00 0.00 96 1014.8
20260507034148 58 342 2.0 5.0 0.00 0.00 0.00 96 1015.0
20260507032147 58 329 1.0 2.0 0.00 0.00 0.00 96 1014.9
20260507031148 58 342 2.0 3.0 0.00 0.00 0.00 95 1015.3
20260507025148 58 340 2.0 3.0 0.00 0.00 0.00 95 1014.7
20260507024148 59 348 2.0 3.0 0.00 0.00 0.00 94 1014.6
20260507023148 59 345 2.0 3.0 0.00 0.00 0.00 93 1015.0
20260507022148 59 330 1.0 3.0 0.00 0.00 0.00 92 1014.5
20260507021148 59 346 2.0 2.0 0.00 0.00 0.00 89 1014.6
20260507020148 59 7 2.0 3.0 0.00 0.00 0.00 86 1014.3
20260507014148 59 351 2.0 3.0 0.00 0.00 0.00 83 1014.3
20260507013148 58 340 2.0 3.0 0.00 0.00 0.00 85 1014.6
20260507012148 59 336 2.0 3.0 0.00 0.00 0.00 87 1014.8
20260507011148 59 348 1.0 3.0 0.00 0.00 0.00 86 1014.7
20260507010148 59 346 2.0 3.0 0.00 0.00 0.00 84 1014.8